Regional Weather Roundup
Issued by NWS Grand Forks, ND

Home | Current Version | Previous Version | Graphics & Text | Print | Product List | Glossary On
Versions: 1 2 3 4 5 6 7 8 9 10 11 12 13 14 15 16 17 18 19 20 21 22 23 24 25 26 27 28 29 30 31 32 33 34 35 36 37 38 39 40 41 42 43 44 45 46 47 48 49 50
000
ASUS43 KFGF 221310
RWRFGF
PRAIRIE TO PINES  WEATHER ROUNDUP
NATIONAL WEATHER SERVICE EASTERN NORTH DAKOTA/GRAND FORKS ND
800 AM CDT TUE JUL 22 2014

 **SATELLITE DATA USED TO AUGMENT SKY COVER AT AUTOMATED STATIONS**
 *****  WEATHER ACROSS EASTERN NORTH DAKOTA  *****

CITY           SKY/WX    TMP DP  RH WIND       PRES   REMARKS
GRAND FORKS    SUNNY     65  60  84 NW10      30.04R
GRAND FRKS AFB SUNNY     65  63  92 NW9       30.06R
GRAND FRKS NWS   N/A     64 N/A N/A VRB10       N/A
DEVILS LAKE    SUNNY     64  57  77 N9        30.09R
FARGO          SUNNY     67  61  81 NW13      30.04R
WAHPETON ARPT  MOSUNNY   64  59  82 NW10G16   30.05R
$$

 ***** WEATHER ACROSS CENTRAL AND WESTERN NORTH DAKOTA  *****

CITY           SKY/WX    TMP DP  RH WIND       PRES   REMARKS
BISMARCK       CLOUDY    69  64  84 CALM      30.16R
MINOT          SUNNY     63  59  87 VRB6      30.12R
JAMESTOWN      SUNNY     66  61  84 NW10      30.10R
MINOT AFB      SUNNY     64  63  99 N6        30.12R
GARRISON         N/A     61  60  97 NW3       30.15R
WILLISTON      CLOUDY    61  59  93 CALM      30.15R FOG
DICKINSON      SUNNY     60  59  96 CALM      30.16R FOG
HETTINGER      MOSUNNY   59  57  93 CALM      30.19R FOG
$$

 *****  OTHER AIRPORT OBSERVATIONS IN OUR AREA  *****

CITY           SKY/WX    TMP DP  RH WIND       PRES   REMARKS
WALHALLA         N/A     64  64 100 NW7         N/A
GRAFTON AIRPOR FAIR      64  61  88 NW9       30.05R
VALLEY CITY AR FAIR      64  64 100 NW12      30.09R
CANDO          FAIR      64  59  82 N7        30.11R
CAVALIER APRT  FAIR      64  57  77 NW10      30.06R
GWINNER        SUNNY     66  66 100 N8        30.08R
SHEYENNE NWR     N/A     68  63  83 N8        29.95
ROLLA          FAIR      63  63 100 NW9       30.13R
 ***** THE ABOVE OBSERVATIONS ARE NON NWS ARE NOT QUALITY
       CONTROLLED AND MAY MIS-REPORT RAIN FOR SNOW...
$$

  *****  WEATHER ACROSS NORTHERN MINNESOTA  *****

CITY           SKY/WX    TMP DP  RH WIND       PRES   REMARKS
FLAG ISLAND    MOSUNNY   63  55  77 NW17      29.95R
WARROAD        NOT AVBL
ROSEAU         SUNNY     61  55  82 NW9       29.99R
HALLOCK        SUNNY     63  59  88 N9        30.03R
THF RVR FALLS  MOSUNNY   63  59  88 NW12      30.02R
BAUDETTE       PTSUNNY   63  57  81 N14       29.96R
WASKISH        PTSUNNY   63  61  94 NW9G17    29.96R
CROOKSTON      NOT AVBL
$$
  *****  WEATHER ACROSS CENTRAL AND WEST MINNESOTA  *****

CITY           SKY/WX    TMP DP  RH WIND       PRES   REMARKS
FOSSTON        MOSUNNY   61  59  94 NW10      30.03R
BEMIDJI        CLOUDY    62  60  92 NW15      29.98R
PARK RAPIDS    CLOUDY    64  62  93 NW14G22   29.99R
ELBOW LAKE     CLOUDY    66  63  92 NW13G21   30.02R
WADENA         DRIZZLE   64  63  94 NW16G22   30.00R
DETROIT LAKES  PTSUNNY   63  61  94 NW14G20   30.04R
MOORHEAD       SUNNY     66  64  94 NW10      30.05R
FERGUS FALLS   CLOUDY    64  61  88 N17G23    30.02R
MORRIS MN      PTSUNNY   66  64  94 NW13G18   30.03R
STAPLES        PTSUNNY   66  63  88 NW15G23   29.98R
$$
  *****  WEATHER ELSEWHERE ACROSS MINNESOTA  *****

CITY           SKY/WX    TMP DP  RH WIND       PRES   REMARKS
DULUTH         CLOUDY    69  63  81 NW21G32   29.82R
INTRNTL FALLS  CLOUDY    64  62  93 NW9       29.88R
ELY            DRIZZLE   66  64  94 NW10G18   29.78R
CLOQUET        PTSUNNY   70  63  78 W18G24    29.86R
WHEATON        PTSUNNY   64  61  88 NW15G21   30.07R
BRAINERD       PTSUNNY   66  62  87 NW14G23   29.96R
HIBBING        CLOUDY    68  63  84 NW17G29   29.86R
ALEXANDRIA     CLOUDY    68  64  87 NW13      30.02R
SAINT CLOUD    SUNNY     73  63  70 NW18      29.96R
MINNEAPOLIS    MOSUNNY   74  65  73 W12       29.93R
$$

  *****  WEATHER ACROSS SOUTH DAKOTA  *****

CITY           SKY/WX    TMP DP  RH WIND       PRES   REMARKS
SIOUX FALLS    CLOUDY    71  65  81 N8        30.00R
BROOKINGS      NOT AVBL
WATERTOWN      PTSUNNY   68  63  84 N14       30.06S
HURON          MOSUNNY   67  63  87 N15       30.07R
SISSETON         N/A     68  65  90 N15       30.04R
ABERDEEN       SUNNY     66  63  90 N14       30.09R
MITCHELL       PTSUNNY   69  66  90 W16G25    30.06R
PIERRE         CLOUDY    66  63  90 NW13      30.15R
MOBRIDGE       CLOUDY    65  63  93 N8        30.12R
RAPID CITY     MOSUNNY   67  64  90 N5        30.20R
$$

  *****  SOME WEATHER IN NEARBY STATES *****

CITY           SKY/WX    TMP DP  RH WIND       PRES   REMARKS
GLASGOW MT     SUNNY     59  54  83 N3        30.14R
GREAT FALLS MT CLOUDY    57  51  80 W3        30.15S
CHEYENNE WY    SUNNY     62  53  72 N7        30.37R
SCOTTSBLUFF NE MOSUNNY   69  60  73 N7        30.23R
OMAHA NE       PTSUNNY   83  70  64 W7        29.97R
DES MOINES IA  CLOUDY    80  74  81 SW10      29.93S
DAVENPORT IA   PTSUNNY   76  68  76 S14       29.98S
CHICAGO IL     MOSUNNY   76  62  62 S12       30.02F
EAU CLAIRE WI  SUNNY     81  75  82 SW10      29.86R
LA CROSSE WI   CLOUDY    79  70  74 S8        29.89R
$$

  *****  SOME NATIONAL WEATHER *****

CITY           SKY/WX    TMP DP  RH WIND       PRES   REMARKS
LA GUARDIA NY  MOSUNNY   79  64  60 CALM      30.17S
RALEIGH NC     CLOUDY    75  70  84 E5        30.18S HAZE
ATLANTA GA     CLOUDY    73  70  90 E5        30.16R
NEW ORLEANS LA PTSUNNY   82  76  81 CALM      30.03R
OKLAHOMA CITY  PTSUNNY   76  72  87 S7        30.10R FOG
ALBUQUERQUE NM MOCLDY    78  50  37 NE3       30.27R
SALT LAKE CITY MOCLDY    66  46  48 S5        30.18R
LOS ANGELES CA PTCLDY    66  62  87 SE5       30.02S
BOISE ID       CLEAR     68  54  60 SE9       30.10R
SEATTLE WA     MOCLDY    56  53  90 CALM      30.03R
$$

*** WEATHER ACROSS MANITOBA...SASKATCHEWAN AND ONTARIO ***
                ***ONTARIO***

CITY           SKY/WX    TMP DP  RH WIND       PRES   REMARKS
GERALDTON      CLOUDY    66  64  94 SE9       29.70F THUNDER FOG
THUNDER BAY    CLOUDY    64  64 100 VRB13G20  29.66R
SIOUX LOOKOUT  CLOUDY    59  59 100 N7        29.86R
TORONTO        SUNNY     75  64  69 NW2       30.13S
BIG TROUT LK   SUNNY     52  45  76 N9        29.99R
PICKLE LAKE    LGT RAIN  57  55  94 N6        29.89R
DRYDEN         CLOUDY    59  57  94 N12       29.89R
KENORA         PTSUNNY   61  54  77 NW9       29.96R
$$
                *** MANITOBA***

CITY           SKY/WX    TMP DP  RH WIND       PRES   REMARKS
BRANDON        MOSUNNY   61  59  94 CALM      30.11R
DAUPHIN        SUNNY     61  57  88 W7        30.11R
ISLAND LAKE    PTSUNNY   54  45  71 NE7       30.08
PILOT MOUND    NOT AVBL
THE PAS        MOSUNNY   59  54  82 N5        30.16R
THOMPSON       MOSUNNY   52  52 100 W2        30.13R
WINNIPEG       SUNNY     63  55  77 NW7       30.06R
LYNN LAKE      SUNNY     57  52  82 NW5       30.15R
CHURCHILL      PTSUNNY   54  48  82 NW9       30.04F
GILLAM         PTSUNNY   55  50  82 NW7       30.09R
$$
                ***SASKATCHEWAN***

CITY           SKY/WX    TMP DP  RH WIND       PRES   REMARKS
ESTEVAN        PTSUNNY   63  61  94 NE2       30.15R
KINDERSLEY     MOSUNNY   55  54  94 E2        30.18R
LLOYDMINSTER   SUNNY     55  52  88 S2        30.16S
PRINCE ALBERT  PTSUNNY   54  52  94 CALM      30.17R
REGINA         SUNNY     61  57  88 NE2       30.16R
YORKTON        SUNNY     57  55  94 NW3       30.14R
N. BATTLEFORD  SUNNY     54  52  94 CALM      30.19R
LA RONGE       SUNNY     59  54  82 SE6       30.17R
SASKATOON      SUNNY     55  55 100 W3        30.18R
SWIFT CURRENT  SUNNY     54  52  94 S3        30.18S
$$
NOTE: THESE ARE AUTOMATED STATIONS WITH LIMITED QUALITY CONTROL
      "FAIR" INDICATES FEW OR NO CLOUDS BELOW 12,000 FEET WITH NO
      SIGNIFICANT WEATHER AND/OR OBSTRUCTIONS TO VISIBILITY.
      SKY/WX - SKY CONDITION AND SIGNIFICANT WEATHER.
      TMP - AIR TEMPERATURE.    DP   - DEWPOINT TEMPERATURE.
      RH  - RELATIVE HUMIDITY.  PRES - PRESSURE.
      HX  - HEAT INDEX.         WCI  - WIND CHILL INDEX.
$


USA.gov is the U.S. government's official web portal to all federal, state and local government web resources and services.